Regional Weather Roundup
Issued by NWS Kansas City/Pleasant Hill, MO

Home | Current Version | Previous Version | Text Only | Print | Product List | Glossary On
Versions: 1 2 3 4 5 6 7 8 9 10 11 12 13 14 15 16 17 18 19 20 21 22 23 24 25 26 27 28 29 30 31 32 33 34 35 36 37 38 39 40 41 42 43 44 45 46 47 48 49 50
000
ASUS43 KEAX 222210
RWREAX

WEATHER ROUNDUP FOR EASTERN KANSAS AND NORTHWEST MISSOURI
NATIONAL WEATHER SERVICE KANSAS CITY/PLEASANT HILL MO
500 PM CDT WED MAR 22 2017

KSZ040-057-103>105-MOZ028-029-037-043-222300-
...KANSAS CITY METROPOLITAN AREA...

CITY           SKY/WX    TMP DP  RH WIND       PRES   REMARKS
K.C. INTL      MOSUNNY   55  26  32 E17       30.23F
K.C. DOWNTOWN  SUNNY     57  27  31 E14       30.22F
LEES SUMMIT    MOSUNNY   55  27  34 E17       30.23F
OLATHE - IXD   CLOUDY    55  29  36 E13G24    30.21F
OLATHE - OJC   PTSUNNY   54  30  40 SE16G22   30.21F
LAWRENCE       CLOUDY    58  26  29 E17       30.21F

$$

MOZ001>008-011>017-020>025-030>033-038>040-044>046-053-054-222300-
...NORTHERN AND CENTRAL MISSOURI...

CITY           SKY/WX    TMP DP  RH WIND       PRES   REMARKS
ST. JOSEPH     SUNNY     56  26  31 E17G24    30.23F
MOSBY          PTCLDY    55  27  33 E15       30.25F
WARRENSBURG    CLOUDY    54  27  35 E15G23    30.25F
WHITEMAN AFB   PTSUNNY   55  26  32 E14       30.24F
CLINTON        NOT AVBL
SEDALIA        SUNNY     54  25  32 E14G24    30.27F
WARSAW         NOT AVBL
CHILLICOTHE      N/A     50  25  37 E13       30.32F
KIRKSVILLE     CLOUDY    46  21  37 E12       30.36F

$$

MOZ041-047>049-056>058-063>065-088>090-097-222300-
...EASTERN AND SOUTHERN MISSOURI...

CITY           SKY/WX    TMP DP  RH WIND       PRES   REMARKS
ST. LOUIS INTL CLOUDY    52  14  22 E10       30.38F
SPIRIT OF STL  MOSUNNY   52  17  25 E14       30.36F
COLUMBIA       SUNNY     54  25  32 E14G20    30.31F
JEFFERSON CITY SUNNY     56  22  26 E13       30.32F
ROLLA          SUNNY     54  26  34 E14       30.29F
OSAGE BEACH    SUNNY    N/A N/A N/A E12       30.27F
SPRINGFIELD    CLOUDY    58  32  37 SE10      30.20F
BRANSON        CLOUDY    54  36  50 SE13      30.25S
JOPLIN         CLOUDY    57  34  41 E15G22    30.19F
WEST PLAINS    CLOUDY    59  30  33 E9        30.27F

$$

IAZ060-094-KSZ022-034>040-054-083-096-NEZ052-066-093-222300-
...KANSAS...SOUTHEAST NEBRASKA AND IOWA...

CITY           SKY/WX    TMP DP  RH WIND       PRES   REMARKS
TOPEKA         CLOUDY    57  26  30 E15       30.18F
MANHATTAN      CLOUDY    57  24  28 SE14      30.17S
EMPORIA        CLOUDY    56  31  38 E16G23    30.16F
CHANUTE        CLOUDY    58  31  35 SE18      30.16F
WICHITA        CLOUDY    57  38  48 SE13      30.13S
OMAHA          CLOUDY    51  22  31 SE17      30.23F
LINCOLN        CLOUDY    53  20  27 SE16      30.21F
FALLS CITY     SUNNY     57  26  30 E17       30.20F
LAMONI         CLOUDY    46  22  38 SE14G21   30.30F
DES MOINES     CLOUDY    46  22  38 E13       30.34F

$$




USA.gov is the U.S. government's official web portal to all federal, state and local government web resources and services.